Weather Roundup
Issued by NWS

Home | Current Version | Previous Version | Graphics & Text | Print | Product List | Glossary Off
Versions: 1 2 3 4 5 6 7 8 9 10 11 12 13 14 15 16 17 18 19 20 21 22 23 24 25 26 27 28 29 30 31 32 33 34 35 36 37 38 39 40 41 42 43 44 45 46 47 48 49 50

000
NZUS93 KARX 240310
HRRWXR

CURRENT HOURLY OBSERVATIONS ACROSS
MUCH OF THE UPPER MISSISSIPPI VALLEY
NATIONAL WEATHER SERVICE LA CROSSE WI
1000 PM CDT WED APR 23 2014


...SOUTHEAST MINNESOTA...


CITY           SKY/WX    TMP DP  RH WIND       PRES   REMARKS
ROCHESTER      CLOUDY    44  34  67 SE21G29   29.91F
ROCHESTER/MAYO CLOUDY    45  32  60 E17G28    29.92F
WINONA         CLOUDY    43  37  81 SE9       29.98S
AUSTIN         CLOUDY    43  36  75 SE18      29.87F
ALBERT LEA     CLOUDY    45  37  76 SE15G26   29.87R
DODGE CENTER   CLOUDY    46  36  66 SE21      29.89F
PRESTON        CLOUDY    44  36  72 SE12G22   29.93F
OWATONNA       CLOUDY    45  36  70 SE16G24   29.89S
FARIBAULT      CLOUDY    48  32  53 E13G21    29.90F
$$

...ELSEWHERE IN MINNESOTA...


CITY           SKY/WX    TMP DP  RH WIND       PRES   REMARKS
MINNEAPOLIS    CLOUDY    43  39  86 E15       29.92S
INTNL FALLS    CLOUDY    45  25  45 SE7       29.96R
DULUTH         RAIN      38  29  70 E10G18    30.01S WCI  31
RED WING       CLOUDY    45  37  76 SE10G16   29.95R
REDWOOD FALLS  CLOUDY    44  37  76 SE16G23   29.82R
MANKATO        CLOUDY    45  36  70 SE18G24   29.88S
WORTHINGTON    CLOUDY    45  34  65 SE15      29.80R
FAIRMONT       CLOUDY    45  36  70 SE17      29.85R
$$

...SOUTHWEST WISCONSIN...


CITY           SKY/WX    TMP DP  RH WIND       PRES   REMARKS
LA CROSSE      CLOUDY    45  39  79 E14G22    29.98F
PRAIRIE DU CHI CLOUDY    46  37  69 E9        29.96F
BOSCOBEL       CLOUDY    48  35  60 E12       30.00F
LONE ROCK      CLOUDY    44  39  82 E12       30.02R
PLATTEVILLE    CLOUDY    45  37  73 E15       29.99S
FORT MC COY    DRIZZLE   43  40  88 E7        30.02F
CAMP DOUGLAS   LGT RAIN  43  43  99 SE7       30.04R
VIROQUA        CLOUDY    42  38  87 E14       29.97F
WIS DELLS      LGT RAIN  42  34  73 SE5       30.05R
$$

...ELSEWHERE IN WISCONSIN...


CITY           SKY/WX    TMP DP  RH WIND       PRES   REMARKS
MILWAUKEE      CLOUDY    38  21  50 E6        30.09F WCI  33
MADISON        LGT RAIN  41  32  70 E9        30.04R
GREEN BAY      CLOUDY    42  10  27 E9        30.10S
EAU CLAIRE     LGT RAIN  42  39  89 E9        30.01R
BLACK RVR FLS  LGT RAIN  42  41  97 E5        30.02R
MEDFORD        CLOUDY    44  26  49 SE6       30.04R
WAUSAU         CLOUDY    45  24  43 SE9       30.04R
WIS RAPIDS     CLOUDY    46  25  43 SE10      30.06R
MARSHFIELD     CLOUDY    45  29  53 SE9       30.03R
RICE LAKE      RAIN      40  36  84 E12       30.03R WCI  33
$$

...NORTHEAST IOWA...


CITY           SKY/WX    TMP DP  RH WIND       PRES   REMARKS
WATERLOO       CLOUDY    46  38  73 SE17G28   29.86F
DUBUQUE        CLOUDY    46  37  71 SE16      29.97R
DECORAH        CLOUDY    45  37  76 SE12G18   29.93F
MASON CITY       N/A     44  37  76 SE20G31   29.85F
CHARLES CITY   CLOUDY    45  37  76 SE22      29.88S
OELWEIN        CLOUDY   N/A N/A N/A SE17G24   29.91F
$$

...ELSEWHERE IN IOWA...


CITY           SKY/WX    TMP DP  RH WIND       PRES   REMARKS
DES MOINES     CLOUDY    52  38  58 E14       29.79R
IOWA CITY      CLOUDY    47  41  80 E10       29.93F
FORT DODGE     CLOUDY    45  39  81 SE9       29.81R
MARSHALLTOWN   CLOUDY    46  40  79 SE14G28   29.84F
CEDAR RAPIDS   CLOUDY    46  39  76 E22G29    29.87F
$$

...NORTHERN ILLINOIS...


CITY           SKY/WX    TMP DP  RH WIND       PRES   REMARKS
CHICAGO-OHARE  CLOUDY    42  20  41 NE10      30.08F
DUPAGE         CLOUDY    42  22  44 E10       30.06F
CHICAGO-MIDWAY CLOUDY    42  26  53 E12       30.08F
MOLINE         CLOUDY    48  40  73 SE7       29.98R
ROCKFORD       LGT RAIN  44  31  60 SE9       30.04F
STERLING       CLOUDY    46  37  71 E20       29.98F
PEORIA         CLOUDY    54  36  50 E10       30.01R
$$

NOTE: "FAIR" INDICATES FEW OR NO CLOUDS BELOW 12,000 FEET WITH NO
SIGNIFICANT WEATHER AND/OR OBSTRUCTIONS TO VISIBILITY. WIND
SPEEDS ARE IN MILES-PER-HOUR.



USA.gov is the U.S. government's official web portal to all federal, state and local government web resources and services.